User: anonymous   Login
Location: Crocus Hill
(18.2167°N, 63.0667°W)
Time: 20:22:21
(UTC+00:00)
Language:

Delta 128 - Orbit

View from above orbital plane
View from above orbital plane
View from above satellite
View from above satellite

Ground track
Ground track

The orbit data is extracted from the following two-line orbital elements,

1  9786U 77005B   20090.62471850  .00000201  00000-0  30216-4 0  9992
2  9786  28.0106  60.2727 0416797 359.9497   0.0975 13.94589478194961
Epoch (UTC): 30 March 2020 14:59:35
Eccentricity: 0.0416797
inclination: 28.0106°
perigee height: 609 km
apogee height: 1216 km
right ascension of ascending node: 60.2727°
argument of perigee: 359.9497°
revolutions per day: 13.94589478
mean anomaly at epoch: 0.0975°
orbit number at epoch: 19496

The dashed part of the orbit path shows where the satellite is in the earth's shadow,  

DLR